This is the latest recevied weather packets stored in our database for station/object EA1GLE. If no packets are shown the sender has not sent any weather packets the latest 10 day(s).
| Time | Temp. | Humidity | Pressure | Rain* | Wind** | Luminosity | Snow |
|---|---|---|---|---|---|---|---|
| 1777703224 | 13.89° C | 84% | 1019.2 hPa | 0 mm | - | 43 W/m² | - |
| 1777697643 | 13.89° C | 83% | 1019.1 hPa | 0 mm | - | 0 W/m² | - |
| 1777693503 | 13.33° C | 86% | 1019.5 hPa | 0 mm | - | 0 W/m² | - |
| 1777691883 | 13.33° C | 86% | 1019.7 hPa | 0 mm | - | 0 W/m² | - |
| 1777686843 | 13.33° C | 86% | 1019.9 hPa | 0 mm | - | 0 W/m² | - |
| 1777685226 | 13.33° C | 87% | 1020 hPa | 0 mm | - | 0 W/m² | - |
| 1777680003 | 14.44° C | 79% | 1020.2 hPa | 0 mm | - | 0 W/m² | - |
| 1777679103 | 14.44° C | 79% | 1020.5 hPa | 0 mm | - | 0 W/m² | - |
| 1777674964 | 15° C | 79% | 1020.6 hPa | 0 mm | - | 0 W/m² | - |
| 1777668844 | 16.11° C | 77% | 1020.9 hPa | 0 mm | - | 0 W/m² | - |
| 1777665603 | 16.67° C | 83% | 1020.5 hPa | 0 mm | - | 0 W/m² | - |
| 1777665243 | 16.67° C | 87% | 1020.5 hPa | 0 mm | - | 0 W/m² | - |
| 1777661778 | 18.89° C | 73% | 1019.9 hPa | 0 mm | - | 10 W/m² | - |
| 1777653904 | 21.67° C | 44% | 1019.4 hPa | 0 mm | - | 283 W/m² | - |
| 1777649763 | 21.11° C | 44% | 1019.5 hPa | 0 mm | - | 121 W/m² | - |
| 1777633878 | 20° C | 55% | 1020.8 hPa | 0 mm | - | 776 W/m² | - |
| 1777629603 | 18.33° C | 63% | 1021.1 hPa | 0 mm | - | 784 W/m² | - |
| 1777629243 | 18.89° C | 65% | 1021 hPa | 0 mm | - | 350 W/m² | - |
| 1777620424 | 13.89° C | 84% | 1020.9 hPa | 0 mm | - | 167 W/m² | - |
| 1777619343 | 13.33° C | 93% | 1020.7 hPa | 0 mm | - | 180 W/m² | - |
| 1777616959 | 10° C | 99% | 1021 hPa | 0 mm | - | 56 W/m² | - |
| 1777609217 | 10.56° C | 99% | 1020.4 hPa | 0 mm | - | 0 W/m² | - |
| 1777607644 | 10.56° C | 98% | 1020.2 hPa | 0 mm | - | 0 W/m² | - |
| 1777606023 | 11.11° C | 97% | 1020.3 hPa | 0 mm | - | 0 W/m² | - |
| 1777603503 | 11.11° C | 97% | 1020.4 hPa | 0 mm | - | 0 W/m² | - |
* Rain latest hour (hover to see other rain measurements)
** Current wind speed in m/s (hover to see current wind gust speed)